STARLINK-35908

Last updated on Wed Dec 31 2025 00:02:07 GMT+0000 (Coordinated Universal Time)

1 66639U 25271Y 25364.58906417 .00081309 00000+0 20224-2 0 9999 2 66639 53.1603 102.5620 0001383 110.0641 250.0513 15.39600505 6965
UTC large
Height (km)
Speed (km/s)
/
Latitude / Longitude
Inclination (degrees)
Orbital Period (minutes)
Azimuth
Elevation
Range (km)
Doppler Factor

Next 0 passes for location: London (51.5072 / 0.1276)

Sorry there are no passes over London.